Weather History for Hammond, LA

Change the Weather History Date:

Tuesday, April 15, 2014

  Actual Average (KMSY) Record (KMSY)
Temperature  
Mean Temperature 51 °F -  
Max Temperature 60 °F 78 °F 87 °F (2001)
Min Temperature 41 °F 57 °F 46 °F (2008)
Degree Days  
Heating Degree Days 14    
Growing Degree Days 1 (Base 50)    
Moisture  
Dew Point 35 °F    
Average Humidity 59    
Maximum Humidity 88    
Minimum Humidity 23    
Precipitation  
Precipitation 0.01 in - - ()
Sea Level Pressure  
Sea Level Pressure 30.11 in    
Wind  
Wind Speed 14 mph (NNW)    
Max Wind Speed 24 mph    
Max Gust Speed 33 mph    
Visibility 10 miles    
Events Rain , Thunderstorm    
Averages and records for this station are not official NWS values.
T = Trace of Precipitation, MM = Missing Value Source: NWS Daily Summary

Daily Weather History Graph

Daily Weather History Graph

Search for Another Location

Airport:

Trip Planner

Search our weather history database for the weather conditions in past years. The results will help you decide how hot, cold, wet, or windy it might be!

Date:

Astronomy

Apr. 15, 2014 Rise Set
Actual Time 6:34 AM CDT 7:29 PM CDT
Civil Twilight 6:09 AM CDT 7:54 PM CDT
Nautical Twilight 5:40 AM CDT 8:23 PM CDT
Astronomical Twilight 5:10 AM CDT 8:53 PM CDT
Moon 8:07 PM CDT (4/15) 6:43 AM CDT (4/15)
Length of Visible Light 13h 44m
Length of Day
12h 55m
Full, 100% of the Moon is Illuminated
Apr 15
Full
Apr 22
Last Quarter
Apr 29
New
May 6
First Quarter
May 14
Full

Hourly Weather History & Observations

Time (CDT) Temp. Windchill Dew Point Humidity Pressure Visibility Wind Dir Wind Speed Gust Speed Precip Events Conditions
12:15 AM 51.8 °F - 48.2 °F 88% 29.97 in 10.0 mi NNW 16.1 mph 28.8 mph 0.01 in Rain Light Rain
12:35 AM 51.8 °F - 48.2 °F 88% 29.97 in 10.0 mi NNW 16.1 mph 20.7 mph 0.01 in   Light Drizzle
12:55 AM 51.8 °F - 48.2 °F 88% 29.98 in 10.0 mi NNW 12.7 mph 20.7 mph 0.01 in Thunderstorm Thunderstorm
1:15 AM 51.8 °F - 46.4 °F 82% 29.98 in 10.0 mi NNW 13.8 mph 23.0 mph N/A   Overcast
1:35 AM 51.8 °F - 46.4 °F 82% 29.98 in 10.0 mi NNW 16.1 mph 23.0 mph N/A   Overcast
1:55 AM 50.0 °F - 46.4 °F 87% 29.97 in 10.0 mi NNW 16.1 mph 21.9 mph N/A   Overcast
2:15 AM 50.0 °F - 44.6 °F 82% 29.98 in 10.0 mi NNW 15.0 mph 20.7 mph N/A   Overcast
2:35 AM 50.0 °F - 44.6 °F 82% 29.98 in 10.0 mi NNW 17.3 mph 23.0 mph N/A   Overcast
2:55 AM 50.0 °F - 44.6 °F 82% 29.97 in 10.0 mi NNW 13.8 mph 20.7 mph N/A   Overcast
3:15 AM 50.0 °F - 44.6 °F 82% 29.98 in 10.0 mi NW 12.7 mph - N/A   Overcast
3:35 AM 50.0 °F - 44.6 °F 82% 29.98 in 10.0 mi NNW 13.8 mph 19.6 mph N/A   Overcast
3:55 AM 50.0 °F - 44.6 °F 82% 29.99 in 10.0 mi NNW 18.4 mph 27.6 mph N/A   Overcast
4:15 AM 48.2 °F - 42.8 °F 82% 30.00 in 10.0 mi NW 17.3 mph 25.3 mph N/A   Overcast
4:35 AM 48.2 °F - 41.0 °F 76% 30.02 in 10.0 mi NNW 18.4 mph 24.2 mph N/A   Overcast
5:15 AM 48.2 °F - 41.0 °F 76% 30.03 in 10.0 mi NNW 15.0 mph 19.6 mph N/A   Overcast
5:35 AM 46.4 °F 40.4 °F 41.0 °F 81% 30.04 in 10.0 mi NNW 13.8 mph 21.9 mph N/A   Overcast
5:55 AM 46.4 °F 40.4 °F 39.2 °F 76% 30.05 in 10.0 mi NNW 13.8 mph 27.6 mph N/A   Overcast
6:15 AM 46.4 °F 40.4 °F 39.2 °F 76% 30.06 in 10.0 mi NNW 13.8 mph 20.7 mph N/A   Overcast
6:35 AM 46.4 °F 40.4 °F 39.2 °F 76% 30.07 in 10.0 mi NNW 13.8 mph 25.3 mph N/A   Overcast
6:55 AM 46.4 °F 39.5 °F 39.2 °F 76% 30.09 in 10.0 mi NNW 17.3 mph 26.5 mph N/A   Overcast
7:15 AM 46.4 °F 39.5 °F 37.4 °F 71% 30.10 in 10.0 mi NNW 17.3 mph 25.3 mph N/A   Overcast
7:35 AM 44.6 °F 37.4 °F 37.4 °F 76% 30.11 in 10.0 mi NNW 16.1 mph 26.5 mph N/A   Overcast
7:55 AM 44.6 °F 36.9 °F 37.4 °F 76% 30.12 in 10.0 mi NNW 18.4 mph 26.5 mph N/A   Overcast
8:15 AM 44.6 °F 37.4 °F 37.4 °F 76% 30.13 in 10.0 mi NNW 16.1 mph - N/A   Overcast
8:35 AM 44.6 °F 37.4 °F 37.4 °F 76% 30.14 in 10.0 mi NNW 16.1 mph 26.5 mph N/A   Overcast
8:55 AM 44.6 °F 37.8 °F 37.4 °F 76% 30.15 in 10.0 mi NNW 15.0 mph 23.0 mph N/A   Overcast
9:15 AM 44.6 °F 37.4 °F 35.6 °F 71% 30.15 in 10.0 mi North 16.1 mph 28.8 mph N/A   Overcast
9:35 AM 46.4 °F 38.1 °F 35.6 °F 66% 30.17 in 10.0 mi North 24.2 mph 33.4 mph N/A   Overcast
9:50 AM 46.4 °F 39.5 °F 35.6 °F 66% 30.18 in 10.0 mi NNW 17.3 mph 32.2 mph N/A   Overcast
10:15 AM 48.2 °F - 33.8 °F 58% 30.19 in - North 18.4 mph - N/A   Unknown
10:35 AM 50.0 °F - 35.6 °F 58% 30.18 in 10.0 mi North 17.3 mph 25.3 mph N/A   Mostly Cloudy
10:55 AM 50.0 °F - 35.6 °F 58% 30.18 in 10.0 mi NNW 18.4 mph 24.2 mph N/A   Mostly Cloudy
11:35 AM 53.6 °F - 33.8 °F 47% 30.17 in 10.0 mi North 19.6 mph 26.5 mph N/A   Clear
11:55 AM 53.6 °F - 32.0 °F 44% 30.17 in 10.0 mi North 18.4 mph 28.8 mph N/A   Clear
12:35 PM 55.4 °F - 32.0 °F 41% 30.14 in 10.0 mi NNW 23.0 mph 28.8 mph N/A   Clear
1:15 PM 57.2 °F - 28.4 °F 33% 30.13 in 10.0 mi NNE 13.8 mph 23.0 mph N/A   Clear
1:35 PM 59.0 °F - 30.2 °F 34% 30.12 in 10.0 mi NNW 19.6 mph 26.5 mph N/A   Clear
1:55 PM 59.0 °F - 28.4 °F 31% 30.11 in 10.0 mi North 18.4 mph 26.5 mph N/A   Clear
2:15 PM 59.0 °F - 28.4 °F 31% 30.12 in 10.0 mi NNW 20.7 mph 26.5 mph N/A   Clear
2:35 PM 59.0 °F - 28.4 °F 31% 30.12 in 10.0 mi North 13.8 mph 31.1 mph N/A   Clear
2:55 PM 60.8 °F - 26.6 °F 27% 30.13 in 10.0 mi North 12.7 mph 20.7 mph N/A   Clear
3:15 PM 60.8 °F - 24.8 °F 25% 30.12 in 10.0 mi NNW 15.0 mph 23.0 mph N/A   Clear
3:35 PM 60.8 °F - 26.6 °F 27% 30.13 in 10.0 mi NNW 11.5 mph 16.1 mph N/A   Clear
3:55 PM 60.8 °F - 24.8 °F 25% 30.12 in 10.0 mi North 13.8 mph 21.9 mph N/A   Clear
4:15 PM 60.8 °F - 26.6 °F 27% 30.11 in 10.0 mi North 13.8 mph 19.6 mph N/A   Clear
4:35 PM 60.8 °F - 24.8 °F 25% 30.11 in 10.0 mi NNW 16.1 mph 23.0 mph N/A   Clear
4:55 PM 60.8 °F - 24.8 °F 25% 30.11 in 10.0 mi North 19.6 mph 23.0 mph N/A   Clear
5:15 PM 60.8 °F - 23.0 °F 23% 30.12 in 10.0 mi North 11.5 mph 21.9 mph N/A   Clear
5:35 PM 60.8 °F - 26.6 °F 27% 30.13 in 10.0 mi NNW 11.5 mph 17.3 mph N/A   Clear
5:55 PM 60.8 °F - 26.6 °F 27% 30.14 in 10.0 mi North 10.4 mph - N/A   Clear
6:15 PM 59.0 °F - 26.6 °F 29% 30.15 in 10.0 mi NNW 11.5 mph 17.3 mph N/A   Clear
6:35 PM 57.2 °F - 24.8 °F 29% 30.15 in 10.0 mi North 11.5 mph - N/A   Clear
6:55 PM 57.2 °F - 26.6 °F 31% 30.15 in 10.0 mi North 11.5 mph - N/A   Clear
7:15 PM 55.4 °F - 28.4 °F 36% 30.16 in 10.0 mi NNW 8.1 mph - N/A   Clear
7:35 PM 51.8 °F - 30.2 °F 44% 30.17 in 10.0 mi North 6.9 mph - N/A   Clear
7:55 PM 50.0 °F - 32.0 °F 50% 30.17 in 10.0 mi North 6.9 mph - N/A   Clear
8:15 PM 48.2 °F - 32.0 °F 54% 30.18 in 10.0 mi North 5.8 mph - N/A   Clear
8:35 PM 48.2 °F - 32.0 °F 54% 30.19 in 10.0 mi North 5.8 mph - N/A   Clear
8:55 PM 46.4 °F 44.3 °F 33.8 °F 62% 30.20 in 10.0 mi North 4.6 mph - N/A   Clear
9:15 PM 46.4 °F 43.5 °F 33.8 °F 62% 30.21 in 10.0 mi North 5.8 mph - N/A   Clear
9:35 PM 46.4 °F 45.2 °F 33.8 °F 62% 30.22 in 10.0 mi North 3.5 mph - N/A   Clear
9:55 PM 46.4 °F - 33.8 °F 62% 30.23 in 10.0 mi Calm Calm - N/A   Clear
10:15 PM 44.6 °F 43.1 °F 33.8 °F 66% 30.23 in 10.0 mi North 3.5 mph - N/A   Clear
10:35 PM 44.6 °F 43.1 °F 35.6 °F 71% 30.23 in 10.0 mi NNW 3.5 mph - N/A   Clear
10:55 PM 42.8 °F - 33.8 °F 70% 30.23 in 10.0 mi Calm Calm - N/A   Clear
11:15 PM 42.8 °F - 33.8 °F 70% 30.22 in 10.0 mi Calm Calm - N/A   Clear
11:35 PM 42.8 °F 40.1 °F 33.8 °F 70% 30.22 in 10.0 mi North 4.6 mph - N/A   Clear
11:55 PM 41.0 °F 38.0 °F 35.6 °F 81% 30.21 in 10.0 mi North 4.6 mph - N/A   Clear